N410HA KMPI-O24

Flight info

Callsign N410HA
Flight time 0h 35m
Altitude 10500
Route VFR VIA HALF DOME
Aircraft EC30/L-VGD/C

Departure

Time 2026-04-18 01:36
Airport Mariposa Yosemite Airport (KMPI)

Arrival

Time 2026-04-18 02:11
Airport Lee Vining Airport (O24)
Time Latitude Longitude Altitude Speed Heading
2026-04-18 01:17 37.50957 -120.03931 2239 ft 0 kts 277°
2026-04-18 01:35 37.50962 -120.03931 2243 ft 4 kts 263°
2026-04-18 01:35 37.50984 -120.04016 2329 ft 19 kts 253°
2026-04-18 01:35 37.50949 -120.04112 2474 ft 10 kts 266°
2026-04-18 01:35 37.50950 -120.04136 2693 ft 11 kts 41°
2026-04-18 01:36 37.50974 -120.03955 2948 ft 42 kts 52°
2026-04-18 01:36 37.51081 -120.03545 3354 ft 66 kts 73°
2026-04-18 01:36 37.51207 -120.02932 3789 ft 73 kts 61°
2026-04-18 01:36 37.51575 -120.02496 4194 ft 77 kts 33°
2026-04-18 01:37 37.52100 -120.02131 4448 ft 95 kts 25°
2026-04-18 01:37 37.52747 -120.01765 4624 ft 106 kts 22°
2026-04-18 01:37 37.53453 -120.01483 4801 ft 108 kts 15°
2026-04-18 01:37 37.54190 -120.01253 4999 ft 109 kts 14°
2026-04-18 01:38 37.54924 -120.01007 5188 ft 110 kts 16°
2026-04-18 01:38 37.55677 -120.00754 5341 ft 113 kts 16°
2026-04-18 01:38 37.56450 -120.00502 5486 ft 114 kts 15°
2026-04-18 01:38 37.57173 -120.00095 5618 ft 114 kts 26°
2026-04-18 01:39 37.57893 -119.99657 5770 ft 113 kts 27°
2026-04-18 01:39 37.58599 -119.99230 5918 ft 113 kts 27°
2026-04-18 01:39 37.59319 -119.98787 6073 ft 113 kts 28°
2026-04-18 01:39 37.60016 -119.98338 6215 ft 113 kts 29°
2026-04-18 01:40 37.60685 -119.97781 6318 ft 117 kts 36°
2026-04-18 01:40 37.61355 -119.97149 6296 ft 122 kts 41°
2026-04-18 01:40 37.62029 -119.96469 6301 ft 123 kts 41°
2026-04-18 01:40 37.62699 -119.95798 6301 ft 123 kts 41°
2026-04-18 01:41 37.63362 -119.95107 6300 ft 123 kts 46°
2026-04-18 01:41 37.63917 -119.94279 6302 ft 123 kts 53°
2026-04-18 01:41 37.64427 -119.93399 6303 ft 123 kts 58°
2026-04-18 01:41 37.64914 -119.92497 6299 ft 124 kts 58°
2026-04-18 01:42 37.65396 -119.91605 6299 ft 123 kts 58°
2026-04-18 01:42 37.65821 -119.90654 6304 ft 123 kts 64°
2026-04-18 01:42 37.66180 -119.89684 6305 ft 123 kts 70°
2026-04-18 01:42 37.66497 -119.88680 6312 ft 123 kts 75°
2026-04-18 01:43 37.66758 -119.87654 6310 ft 123 kts 75°
2026-04-18 01:43 37.67023 -119.86621 6307 ft 123 kts 75°
2026-04-18 01:43 37.67290 -119.85583 6308 ft 123 kts 75°
2026-04-18 01:43 37.67536 -119.84556 6316 ft 122 kts 75°
2026-04-18 01:44 37.67717 -119.83506 6317 ft 123 kts 81°
2026-04-18 01:44 37.67878 -119.82434 6318 ft 123 kts 82°
2026-04-18 01:44 37.68036 -119.81374 6317 ft 123 kts 81°
2026-04-18 01:44 37.68195 -119.80307 6317 ft 123 kts 81°
2026-04-18 01:45 37.68352 -119.79252 6323 ft 123 kts 81°
2026-04-18 01:45 37.68509 -119.78181 6327 ft 122 kts 81°
2026-04-18 01:45 37.68661 -119.77137 6329 ft 122 kts 81°
2026-04-18 01:45 37.68818 -119.76073 6326 ft 123 kts 81°
2026-04-18 01:46 37.69086 -119.75053 6309 ft 123 kts 69°
2026-04-18 01:46 37.69524 -119.74129 6277 ft 125 kts 47°
2026-04-18 01:46 37.70176 -119.73426 6321 ft 122 kts 43°
2026-04-18 01:46 37.70821 -119.72730 6324 ft 122 kts 43°
2026-04-18 01:47 37.71494 -119.72068 6338 ft 121 kts 49°
2026-04-18 01:47 37.71948 -119.71152 6353 ft 125 kts 78°
2026-04-18 01:47 37.72091 -119.70061 6324 ft 125 kts 90°
2026-04-18 01:47 37.72053 -119.68973 6323 ft 124 kts 96°
2026-04-18 01:48 37.72001 -119.67882 6318 ft 123 kts 95°
2026-04-18 01:48 37.71999 -119.66811 6314 ft 123 kts 89°
2026-04-18 01:48 37.72170 -119.65745 6324 ft 121 kts 81°
2026-04-18 01:48 37.72307 -119.64692 6329 ft 122 kts 83°
2026-04-18 01:49 37.72443 -119.63624 6334 ft 123 kts 83°
2026-04-18 01:49 37.72628 -119.62577 6317 ft 123 kts 73°
2026-04-18 01:49 37.73074 -119.61659 6333 ft 121 kts 59°
2026-04-18 01:49 37.73594 -119.60825 6330 ft 121 kts 51°
2026-04-18 01:50 37.74127 -119.59996 6343 ft 121 kts 54°
2026-04-18 01:50 37.74460 -119.59024 6347 ft 121 kts 76°
2026-04-18 01:50 37.74520 -119.57938 6348 ft 122 kts 90°
2026-04-18 01:50 37.74488 -119.56860 6341 ft 123 kts 92°
2026-04-18 01:51 37.74538 -119.55791 6321 ft 124 kts 82°
2026-04-18 01:51 37.74975 -119.54874 6365 ft 118 kts 54°
2026-04-18 01:51 37.75580 -119.54117 6421 ft 122 kts 40°
2026-04-18 01:51 37.75997 -119.53469 7112 ft 91 kts 52°
2026-04-18 01:52 37.76313 -119.52806 7622 ft 91 kts 51°
2026-04-18 01:52 37.76713 -119.51926 7390 ft 131 kts 59°
2026-04-18 01:52 37.77172 -119.51096 7851 ft 104 kts 50°
2026-04-18 01:52 37.77637 -119.50468 8322 ft 97 kts 42°
2026-04-18 01:53 37.78092 -119.49884 8765 ft 95 kts 40°
2026-04-18 01:53 37.78544 -119.49295 9211 ft 94 kts 40°
2026-04-18 01:53 37.78994 -119.48706 9645 ft 93 kts 40°
2026-04-18 01:54 37.79977 -119.47723 10536 ft 92 kts 27°
2026-04-18 01:54 37.80636 -119.47278 10517 ft 121 kts 18°
2026-04-18 01:54 37.81452 -119.46928 10557 ft 124 kts 19°
2026-04-18 01:54 37.82243 -119.46499 10574 ft 125 kts 25°
2026-04-18 01:55 37.83002 -119.45947 10575 ft 126 kts 36°
2026-04-18 01:55 37.83656 -119.45216 10579 ft 126 kts 42°
2026-04-18 01:55 37.84312 -119.44482 10581 ft 126 kts 42°
2026-04-18 01:55 37.84927 -119.43687 10579 ft 126 kts 49°
2026-04-18 01:56 37.85509 -119.42847 10578 ft 126 kts 49°
2026-04-18 01:56 37.85966 -119.41882 10577 ft 127 kts 59°
2026-04-18 01:56 37.86416 -119.40897 10584 ft 127 kts 60°
2026-04-18 01:56 37.86869 -119.39910 10580 ft 127 kts 60°
2026-04-18 01:57 37.87205 -119.38870 10583 ft 127 kts 70°
2026-04-18 01:57 37.87504 -119.37771 10584 ft 128 kts 71°
2026-04-18 01:57 37.87761 -119.36687 10582 ft 128 kts 78°
2026-04-18 01:57 37.87911 -119.35544 10581 ft 128 kts 83°
2026-04-18 01:58 37.87886 -119.34380 10575 ft 129 kts 101°
2026-04-18 01:58 37.87662 -119.33283 10576 ft 129 kts 105°
2026-04-18 01:58 37.87375 -119.32187 10579 ft 130 kts 112°
2026-04-18 01:58 37.86929 -119.31184 10579 ft 130 kts 123°
2026-04-18 01:59 37.86312 -119.30342 10576 ft 132 kts 141°
2026-04-18 01:59 37.85615 -119.29581 10580 ft 132 kts 139°
2026-04-18 01:59 37.84912 -119.28844 10583 ft 132 kts 141°
2026-04-18 01:59 37.84211 -119.28142 10736 ft 123 kts 141°
2026-04-18 02:00 37.83516 -119.27533 10911 ft 121 kts 143°
2026-04-18 02:00 37.82729 -119.27119 11046 ft 122 kts 156°
2026-04-18 02:00 37.81950 -119.26716 11239 ft 119 kts 156°
2026-04-18 02:00 37.81184 -119.26327 11433 ft 119 kts 157°
2026-04-18 02:01 37.80525 -119.25697 11619 ft 119 kts 133°
2026-04-18 02:01 37.80021 -119.24866 11817 ft 120 kts 127°
2026-04-18 02:01 37.79432 -119.24113 11992 ft 121 kts 137°
2026-04-18 02:01 37.78812 -119.23399 12183 ft 120 kts 137°
2026-04-18 02:02 37.78134 -119.22750 12273 ft 129 kts 146°
2026-04-18 02:02 37.77398 -119.22066 12250 ft 134 kts 145°
2026-04-18 02:02 37.76661 -119.21253 12046 ft 144 kts 136°
2026-04-18 02:02 37.76088 -119.20224 11858 ft 145 kts 118°
2026-04-18 02:03 37.75717 -119.19048 11688 ft 145 kts 105°
2026-04-18 02:03 37.75552 -119.17819 11627 ft 136 kts 101°
2026-04-18 02:03 37.75436 -119.16634 11617 ft 133 kts 94°
2026-04-18 02:03 37.75568 -119.15485 11617 ft 131 kts 76°
2026-04-18 02:04 37.75978 -119.14455 11592 ft 131 kts 62°
2026-04-18 02:04 37.76423 -119.13427 11452 ft 138 kts 62°
2026-04-18 02:04 37.76913 -119.12357 11153 ft 144 kts 62°
2026-04-18 02:04 37.77425 -119.11266 10918 ft 142 kts 62°
2026-04-18 02:05 37.77990 -119.10245 10669 ft 142 kts 57°
2026-04-18 02:05 37.78588 -119.09254 10414 ft 142 kts 51°
2026-04-18 02:05 37.79296 -119.08416 10121 ft 144 kts 36°
2026-04-18 02:05 37.80270 -119.08118 9822 ft 142 kts 13°
2026-04-18 02:06 37.81242 -119.08115 9599 ft 139 kts
2026-04-18 02:06 37.82197 -119.08213 9416 ft 134 kts
2026-04-18 02:06 37.83127 -119.08306 9244 ft 133 kts
2026-04-18 02:06 37.84039 -119.08401 9071 ft 132 kts
2026-04-18 02:07 37.84958 -119.08492 8895 ft 132 kts
2026-04-18 02:07 37.85874 -119.08584 8676 ft 131 kts
2026-04-18 02:07 37.86769 -119.08736 8411 ft 129 kts 358°
2026-04-18 02:07 37.87652 -119.08870 8243 ft 123 kts 358°
2026-04-18 02:08 37.88477 -119.09030 8181 ft 117 kts 357°
2026-04-18 02:08 37.89283 -119.09189 8056 ft 119 kts 355°
2026-04-18 02:08 37.90107 -119.09350 7924 ft 120 kts 357°
2026-04-18 02:08 37.90940 -119.09485 7794 ft 118 kts 357°
2026-04-18 02:09 37.91750 -119.09623 7691 ft 116 kts 354°
2026-04-18 02:09 37.92526 -119.09817 7640 ft 111 kts 355°
2026-04-18 02:09 37.93280 -119.10016 7614 ft 109 kts 351°
2026-04-18 02:09 37.94024 -119.10228 7539 ft 107 kts 354°
2026-04-18 02:10 37.94757 -119.10422 7391 ft 110 kts 354°
2026-04-18 02:10 37.95440 -119.10679 7552 ft 95 kts 331°
2026-04-18 02:10 37.95829 -119.11267 7845 ft 86 kts 271°
2026-04-18 02:10 37.95541 -119.11898 7996 ft 80 kts 165°
2026-04-18 02:11 37.95155 -119.11639 8014 ft 57 kts 88°
2026-04-18 02:11 37.94976 -119.11243 7878 ft 45 kts 62°
2026-04-18 02:11 37.94857 -119.10996 7741 ft 27 kts 22°
2026-04-18 02:11 37.94956 -119.10848 7620 ft 27 kts 348°
2026-04-18 02:12 37.95159 -119.10941 7515 ft 18 kts 13°
2026-04-18 02:12 37.95276 -119.10850 7374 ft 23 kts 73°
2026-04-18 02:12 37.95294 -119.10799 7134 ft 10 kts 71°
2026-04-18 02:12 37.95309 -119.10693 7012 ft 19 kts 77°
2026-04-18 02:13 37.95325 -119.10595 6907 ft 14 kts 70°
2026-04-18 02:13 37.95346 -119.10532 6846 ft 2 kts 71°
2026-04-18 02:13 37.95353 -119.10488 6833 ft 2 kts 64°
2026-04-18 02:13 37.95354 -119.10479 6824 ft 0 kts 64°